This is the latest recevied weather packets stored in our database for station/object OZ1IEP-5. If no packets are shown the sender has not sent any weather packets the latest 10 day(s).
| Time | Temp. | Humidity | Pressure | Rain* | Wind** | Luminosity | Snow |
|---|---|---|---|---|---|---|---|
| 1787563809 | 17.78° C | 85% | 1019.8 hPa | 0 mm | - | 555 W/m² | - |
| 1787563206 | 17.78° C | 85% | 1019.8 hPa | 0 mm | - | 482 W/m² | - |
| 1787562606 | 17.78° C | 85% | 1019.8 hPa | 0 mm | - | 476 W/m² | - |
| 1787562008 | 17.78° C | 85% | 1019.7 hPa | 0 mm | - | 615 W/m² | - |
| 1787561406 | 17.78° C | 85% | 1019.6 hPa | 0 mm | - | 598 W/m² | - |
| 1787560806 | 17.22° C | 87% | 1019.6 hPa | 0 mm | - | 585 W/m² | - |
| 1787560208 | 17.22° C | 87% | 1019.6 hPa | 0 mm | - | 396 W/m² | - |
| 1787559606 | 16.67° C | 88% | 1019.6 hPa | 0 mm | - | 457 W/m² | - |
| 1787559006 | 16.67° C | 88% | 1019.5 hPa | 0 mm | - | 241 W/m² | - |
| 1787558408 | 16.67° C | 89% | 1019.5 hPa | 0 mm | - | 65 W/m² | - |
| 1787557807 | 16.67° C | 89% | 1019.5 hPa | 0 mm | - | 56 W/m² | - |
| 1787557207 | 16.11° C | 89% | 1019.4 hPa | 0 mm | - | 72 W/m² | - |
| 1787556609 | 16.11° C | 90% | 1019.3 hPa | 0 mm | - | 56 W/m² | - |
| 1787556006 | 16.11° C | 90% | 1019.3 hPa | 0 mm | - | 135 W/m² | - |
| 1787555406 | 15.56° C | 90% | 1019.3 hPa | 0 mm | - | 63 W/m² | - |
| 1787554810 | 15.56° C | 91% | 1019.2 hPa | 0 mm | - | 51 W/m² | - |
| 1787554206 | 15.56° C | 91% | 1019.1 hPa | 0 mm | - | 86 W/m² | - |
| 1787553606 | 15.56° C | 91% | 1019 hPa | 0 mm | - | 54 W/m² | - |
| 1787553009 | 15.56° C | 91% | 1019 hPa | 0 mm | - | 62 W/m² | - |
| 1787552406 | 15° C | 91% | 1018.9 hPa | 0 mm | - | 58 W/m² | - |
| 1787551806 | 15.56° C | 91% | 1018.8 hPa | 0 mm | - | 67 W/m² | - |
| 1787551209 | 15.56° C | 92% | 1018.8 hPa | 0 mm | - | 56 W/m² | - |
| 1787550607 | 15° C | 92% | 1018.8 hPa | 0 mm | - | 69 W/m² | - |
| 1787550006 | 15° C | 92% | 1018.7 hPa | 0 mm | - | 33 W/m² | - |
| 1787549409 | 15° C | 92% | 1018.7 hPa | 0 mm | - | 74 W/m² | - |
* Rain latest hour (hover to see other rain measurements)
** Current wind speed in m/s (hover to see current wind gust speed)